sat.trackr.live / text

‹ back to catalog

STARLINK-34529

NORAD 64936 · 2025-158E

PAYLOAD ACTIVE UNKNOWN

§ Identity

Operator
Country
US
Launch date
2025-07-27
Launch site
AFWTR
Launch vehicle
Mass (kg)
RCS (m²)

Purposes: comms

External: N2YO · Heavens-Above · Gunter

§ Orbital elements

Epoch: 2026-05-25T02:49:14.503008Z

Period
95.64 min
Inclination
97.4507°
Eccentricity
0.0001604
Mean motion
15.05662360 rev/d
Perigee alt
548.4 km
Apogee alt
550.6 km
Semi-major
6,927.6 km
B*
3.8719e-4
RAAN
9.0033°
Arg perigee
111.9054°
Mean anomaly
248.2343°
Rev number
4,685

§ Raw data

STARLINK-345291 64936U 25158E   26145.11752897  .00005534  00000+0  38719-3 0  99942 64936  97.4507   9.0033 0001604 111.9054 248.2343 15.05662360 46852

JSON: /api/v1/satellites/64936 · /tle

For live sub-satellite position, see the globe view (requires WebGL).

§ Visibility from observer

Set your observer location to see the next 7 days of passes ≥ 10°. The values pass through the URL so the page stays shareable.

No JS? Fill the form by hand. The geolocation button needs JavaScript.